943  
NZUS01 KOTX 210825  
RWROTX  
 
EASTERN WASHINGTON/NORTHERN IDAHO ROUNDUP  
NATIONAL WEATHER SERVICE, SPOKANE WA  
100 AM PDT SUN JUL 21 2019  
 
NOTE: "FAIR" INDICATED FEW OR NO CLOUDS BELOW 12,000 FEET WITH NO  
SIGNIFICANT WEATHER AND/OR S TO VISIBILITY
.  
   
..NORTHEAST WASHINGTON AND NORTHERN IDAHO PANHANDLE
 
 
 
CITY SKY/WX TMP DP RH WIND PRES REMARKS
 
SPOKANE INTL CLEAR 64 41 42 E8 30.12R  
SPOKANE DOWNTO CLEAR 57 44 62 CALM 30.12R  
COEUR D ALENE CLEAR 58 43 57 N14 30.13S  
DEER PARK CLEAR 58 42 55 N8 30.13R  
SANDPOINT CLEAR 55 43 62 NE13 30.14S  
BONNERS FERRY FAIR 50 45 81 CALM 30.19S  
   
..SOUTHEAST WASHINGTON AND SOUTHERN IDAHO PANHANDLE
 
 
 
CITY SKY/WX TMP DP RH WIND PRES REMARKS
 
WALLA WALLA CLEAR 61 36 39 NE3 29.98F  
PULLMAN/MOSCOW CLEAR 49 37 63 CALM 30.10F  
LEWISTON CLEAR 63 35 35 S3 30.05R  
LOWELL N/A 52 46 80 CALM 30.12R  
GRANGEVILLE FAIR 46 36 66 CALM 30.10F  
   
..COLUMBIA BASIN
 
 
 
CITY SKY/WX TMP DP RH WIND PRES REMARKS
 
EPHRATA CLEAR 64 39 39 N8 30.05R  
MOSES LAKE CLEAR 66 41 40 NE10 30.04S  
PASCO CLEAR 57 49 74 NW8 29.99R  
RICHLAND SUNNY 60 45 56 CALM 30.00R  
HERMISTON CLEAR 58 41 53 SE3 29.96S  
PENDLETON CLEAR 54 38 54 SE7 29.99S  
   
..EAST SLOPES CASCADES
 
 
 
CITY SKY/WX TMP DP RH WIND PRES REMARKS
 
THE DALLES CLEAR 61 36 39 E5 29.97S  
YAKIMA CLEAR 53 40 61 W7 30.03S  
ELLENSBURG CLEAR 54 40 59 N5 30.05S  
STAMPEDE PASS CLEAR 56 34 43 CALM 30.13S  
WENATCHEE CLEAR 64 39 39 SE8 30.05R  
OMAK CLEAR 63 44 50 W8 30.09R  
SUNNYSIDE SUNNY 53 48 83 N5 30.01S  
   
..SOUTHERN BRITISH COLUMBIA
 
 
 
CITY SKY/WX TMP DP RH WIND PRES REMARKS
 
PENTICTON PTCLDY 57 46 67 N6 30.11R  
CRANBROOK MOCLDY 50 46 87 VRB2 30.26R  
OSOYOOS N/A 59 50 72 NE1 N/A  
CRESTON N/A 57 45 62 N2 N/A  
   
..WESTERN MONTANA
 
 
 
CITY SKY/WX TMP DP RH WIND PRES REMARKS
 
KALISPELL SUNNY 49 42 77 CALM 30.19F  
MISSOULA CLEAR 52 36 54 NW8 30.18R  
   
..NEIGHBORING CITIES
 
 
 
CITY SKY/WX TMP DP RH WIND PRES REMARKS
 
SEATTLE PTCLDY 63 50 62 N7 30.00S  
PORTLAND CLEAR 67 53 61 W7 29.93S  
BOISE CLEAR 64 38 38 CALM 29.98R  
GREAT FALLS CLEAR 45 44 97 NW5 30.23S  
CALGARY PTCLDY 50 48 93 CALM 30.22R  
 
CLICK HERE TO GO TO PREVIOUS BULLETINS.

The Nexlab WA Page
The Nexlab ID Page Main Text Page